Location: Dumpton Point
(51.3500°N, 1.4433°E)
Time: 03:39:20
(UTC+00:00)

Altair - Pass Details

Date: 02 October 2022
Orbit: 1501 x 1682 km, 47.2° (Epoch: 04 December)

Event Time Altitude Azimuth Distance (km) Brightness Sun altitude
Rises 13:13:21 0° 285° (WNW) 4,934 10.3 31.7°
Reaches altitude 10° 13:19:07 10° 260° (W) 3,946 10.3 31.3°
Maximum altitude 13:22:51 13° 237° (WSW) 3,727 10.7 31.0°
Drops below altitude 10° 13:26:35 10° 215° (SW) 3,927 11.2 30.7°
Sets 13:32:19 0° 190° (S) 4,886 11.1 30.3°
